Current Version              Previous Version:    01  02  03  04  05  06  07  08  09  10  11  12  13  14  15  16  17  18  19  20  21  22  23  24  25  26  27  28  29  30  
   31  32  33  34  35  36  37  38  39  40  41  42  43  44  45  46  47  48  49  50  51  52  53  54  55  56  57  58  59  60  

[Printable]
391
ASUS44 KLUB 230901
RWRTX
WEST TEXAS WEATHER ROUNDUP
NATIONAL WEATHER SERVICE LUBBOCK TX
400 AM CDT WED JUL 23 2014

NOTE: "FAIR" INDICATES FEW OR NO CLOUDS BELOW 12,000 FEET WITH NO
SIGNIFICANT WEATHER AND/OR OBSTRUCTIONS TO VISIBILITY.

TXZ004-006>008-010-012-014-016-OKZ002-231000-
TEXAS PANHANDLE/OKLAHOMA PANHANDLE

CITY           SKY/WX    TMP DP  RH WIND       PRES   REMARKS
AMARILLO       CLEAR     70  64  81 SE9       30.26S
BORGER         CLEAR     76  63  64 S8        30.23S
CANADIAN       CLEAR     73  66  80 CALM      30.18S
DALHART        CLEAR     71  63  75 CALM      30.29S
DUMAS          CLEAR     66  61  84 CALM      30.27R
GUYMON         CLEAR     70  67  90 S3        30.22S
HEREFORD       MOCLDY    68  67  96 CALM      30.28S
PERRYTON       CLEAR     66  60  81 S7        30.22S
$$

TXZ026-029-035-045-048-231000-
SOUTHERN PANHANDLE/SOUTH PLAINS/ROLLING PLAINS

CITY           SKY/WX    TMP DP  RH WIND       PRES   REMARKS
CHILDRESS      CLEAR     76  68  76 SE6       30.15S
SEMINOLE       MOCLDY    74  58  58 CALM      30.23R
LUBBOCK        MOCLDY    72  62  71 E6        30.22S
PLAINVIEW      PTCLDY    70  65  83 CALM      30.23R
SNYDER         MOCLDY    77  63  60 E3        30.17S
$$

TXZ052-054-060>062-072-078-127-140-154-169-231000-
PERMIAN BASIN/CONCHO VALLEY/BIG COUNTRY/EDWARDS PLATEAU

CITY           SKY/WX    TMP DP  RH WIND       PRES   REMARKS
ABILENE        PTCLDY    76  67  73 S5        30.12S
BIG SPRING     MOCLDY    79  62  55 E7        30.18S
BRADY          CLEAR     75  68  78 CALM      30.10F
BROWNWOOD      CLOUDY    73  70  88 CALM      30.10S
JUNCTION       CLEAR     72  65  78 CALM      30.11S
MIDLAND        MOCLDY    78  64  61 SE6       30.17S
ODESSA         MOCLDY    79  62  56 SE7       30.18S
SAN ANGELO     MOCLDY    77  64  64 SW5       30.11S
SONORA         MOCLDY    73  63  68 CALM      30.16F
SWEETWATER     MOCLDY    77  65  66 S7        30.19S
WINK           PTCLDY    82  61  48 SE8       30.14S
$$

TXZ055-058-074-075-080-082-231000-
FAR WEST/SOUTHWEST MOUNTAINS/TRANS PECOS

CITY           SKY/WX    TMP DP  RH WIND       PRES   REMARKS
ALPINE         MOCLDY    70  59  68 CALM      30.31S
DRYDEN           N/A     81  61  50 NE3       30.11R
EL PASO        CLOUDY    75  66  73 S3        30.20F
FORT STOCKTON  PTCLDY    75  60  59 S7        30.16F
GUADALUPE PASS MOCLDY    74  54  49 NE14        N/A
MARFA          MOCLDY    64  57  77 NE8       30.30S
PRESIDIO       FAIR      84  60  43 NE7       30.12S
$$

TXZ014-016-019-021>030-083-231000
TEXAS TECH WEST TEXAS MESONET/TEXAS PANHANDLE/NORTHERN SOUTH PLAINS

CITY           SKY/WX    TMP DP  RH WIND       PRES   REMARKS
ABERNATHY 5ENE   N/A     70  63  79 SE3       30.24S
AMARILLO 9NNE    N/A     67  66  94 S2        30.25R
AMARILLO 7SSE    N/A     66  64  92 SE2       30.27S
AMHERST 1NE      N/A     70  63  79 E5        30.25S
BOOTLEG 11WNW    N/A     67  64  88 SE8       30.32S
CANADIAN 6E      N/A     76  66  71 W3        30.18R
CAPROCK CYN SP   N/A     73  66  78 S7        30.20S
CHILDRESS 2NNE   N/A     76  68  76 S7        30.14F
CLARENDON 2WSW   N/A     69  64  82 S3        30.21S
CLAUDE 12SW      N/A     70  64  82 SE3       30.25F
DIMMITT 2NE      N/A     68  64  86 E6        30.27S
FLOYDADA 2NNE    N/A     68  64  84 SE5       30.22S
FRIONA 2NE       N/A     67  64  88 E3        30.29S
GOODLETT 3W      N/A     76  67  71 S2        30.12S
HART 3N          N/A     68  64  88 E3        30.26S
HEREFORD 2NW     N/A     69  64  84 SE2       30.27S
MCLEAN 1E        N/A     71  65  83 SW5       30.20F
MEMPHIS 1NE      N/A     73  67  83 NW1       30.16S
OLTON 6S         N/A     69  63  81 E5        30.25R
PALO DURO SP     N/A     70  66  86 S5        30.27S
PAMPA 2E         N/A     71  64  77 S6        30.24S
PLAINVIEW 1S     N/A     71  64  80 E1        30.23S
SILVERTON 7ESE   N/A     70  64  81 SE6       30.23S
TULIA 2ENE       N/A     68  64  86 E5        30.25S
TURKEY 2WSW      N/A     74  67  76 S3        30.17S
UMBARGER 3NNE    N/A     68  64  88 E3        30.28S
$$

TXZ033>036-039>041-045>048-231000
TEXAS TECH WEST TEXAS MESONET/SOUTH PLAINS

CITY           SKY/WX    TMP DP  RH WIND       PRES   REMARKS
AIKEN 3WSW       N/A     67  65  91 E5        30.24S
ANDREWS 2NE      N/A     78  59  53 SE5       30.20S
BROWNFIELD 2S    N/A     73  60  65 E2        30.23R
DENVR CTY 7WNW   N/A     69  59  70 E5        30.24S
GAIL 2ESE        N/A     76  61  60 CALM      30.16S
LAMESA 2SE       N/A     73  62  70 SE2       30.20S
LEVELLAND 4S     N/A     68  64  86 CALM      30.24S
LUBBOCK 3WNW     N/A     71  60  68 E2        30.22S
MORTON 1ENE      N/A     70  63  77 SE3       30.25S
ODONNELL 1N      N/A     72  59  64 E1        30.20S
PLAINS 3N        N/A     73  62  68 E6        30.25S
RALLS 1SE        N/A     72  65  79 E5        30.22S
REESE CENTER     N/A     73  60  65 E1        30.23S
SEAGRAVES 1SW    N/A     74  60  61 SE3       30.22S
SEMINOLE 2NNE    N/A     73  59  62 E3        30.21S
SLATON 2NE       N/A     72  62  70 E3        30.21S
SNYDER 3E        N/A     76  63  64 SE6       30.16R
SUNDOWN 8SW      N/A     69  64  81 SE3       30.25R
TAHOKA 3NNE      N/A     69  60  75 N2        30.21R
WOLFFORTH 6SSW   N/A     72  61  69 E3        30.23R
$$

TXZ031-032-036>038-042>044-231000-
TEXAS TECH WEST TEXAS MESONET/ROLLING PLAINS

CITY           SKY/WX    TMP DP  RH WIND       PRES   REMARKS
ASPERMONT 3NE    N/A     76  66  72 CALM      30.12S
FLUVANNA 3WNW    N/A     73  60  63 E7        30.18S
GRAHAM 5SSW      N/A     78  61  54 E5        30.19S
GUTHRIE 10WSW    N/A     75  67  74 CALM      30.14S
HASKELL 1NW      N/A     78  66  67 E5        30.11S
JAYTON 1SSE      N/A     76  65  68 E1        30.14S
KNOX CITY 3NW    N/A     77  66  68 CALM      30.11S
LK A HENRY 1NW   N/A     76  61  59 CALM      30.16R
NORTHFIELD 1S    N/A     75  67  76 SW1       30.15S
ODELL 4ENE       N/A     76  69  80 SE2       30.12S
PADUCAH 10SW     N/A     75  67  76 CALM      30.14S
POST 1NE         N/A     74  60  62 NW2       30.17F
RRING SPRGS 3N   N/A     73  65  77 CALM      30.18S
SEYMOUR 3NW      N/A     77  67  73 SE7       30.10S
SPUR 1W          N/A     73  66  76 NE1       30.15S
WEINERT 2NNE     N/A     76  68  77 E5        30.11S
WHITE RVR 6NE    N/A     73  64  73 N3        30.18S
$$

TXZ052-054-060>062-072-078-127-140-154-169-231000-
TEXAS TECH WEST TEXAS MESONET/PERMIAN BASIN/
CONCHO VALLEY/BIG COUNTRY/EDWARDS PLATEAU

CITY           SKY/WX    TMP DP  RH WIND       PRES   REMARKS
COYANOSA 2N      N/A     78  59  51 SE5       30.14S
JUNCTION 1SSW    N/A     68  63  84 S1        30.11S
MERTZON 3NNE     N/A     73  63  70 SW3       30.14S
SAN ANGELO 7NW   N/A     75  64  67 NE3       30.12S
STRLNG CT 4WSW   N/A     70  60  70 CALM      30.15S
ST LAWRNCE 5SW   N/A     74  61  65 E6        30.16S
SWEETWATR 11SW   N/A     76  65  70 SE8       30.17S
WALL 1E          N/A     75  62  63 SE3       30.12R
$$

TXZ055-058-074-075-080-082-231000-
TEXAS TECH WEST TEXAS MESONET/FAR WEST/SOUTHWEST MOUNTAINS/TRANS PECOS

CITY           SKY/WX    TMP DP  RH WIND       PRES   REMARKS
PRSMN GAP BBNP   N/A     80  61  50 N9        30.13S
GUADLPE MTN NP   N/A     72  54  52 N6        30.35F
$$